Weather in Bolshaya Talovaya

Russia / Rostov Oblast     46°58′16″N   40°37′06″E
temp.,
°C
wind,
m/s
gust,
m/s
humid.,
%
clouds,
%
prec.,
mm/h
press.,
hPa
HPBL,
m
6 august, fri
fri600:00+25ese4742100 0.0 1011115
03:00+25ese4114232 0.0 1011222
06:00+25ese6143934 0.1 1011384
09:00+31ese91226100 0.4 1011955
12:00+35ese910221 0.0 10091986
15:00+37ese9102195 0.0 10072677
18:00+35e71023100 0.0 10061585
21:00+31e7152895 0.0 1006538
7 august, sat
sat700:00+30e81723100 0.0 1006673
03:00+28ese8162642 0.0 1006587
06:00+27ese81633100 0.0 1006668
09:00+27ese61241100 0.9 1006748
12:00+35ese6821100 0.6 10061967
15:00+37ese6717100 0.6 10042492
18:00+37e4818100 0.0 10032809
21:00+28sw1140100 0.4 100411
8 august, sun
sun800:00+26se3447100 0.1 100554
03:00+23s3676100 0.8 1007163
06:00+24wnw5771100 1.1 1008112
09:00+24e3672100 1.2 1010215
12:00+27se575089 0.0 1010840
15:00+32e543384 0.0 10091904
18:00+30nne3332100 0.0 1010841
21:00+24ne2368100 0.4 101047
9 august, mon
mon900:00+22wsw478284 0.0 1011153
03:00+21wsw368792 0.0 1011111
06:00+21ssw35847 0.0 1011123
09:00+27w455793 0.0 1012565
12:00+31sw6640100 0.0 10121429
15:00+31sw6541100 0.0 10121616
18:00+30wsw3347100 0.0 1012847
21:00+21sw3685100 2.5 1013168
10 august, tue
tue1000:00+21ssw22894 0.0 101322
03:00+20ssw3392100 0.0 101246
06:00+21sw3486100 0.0 1012101
09:00+27sw345493 0.0 1012605
12:00+31sw553616 0.0 10111871
15:00+33ssw573322 0.0 10102504
18:00+32sw553431 0.0 10091927
21:00+26w33470 0.0 101046